When you browse on this site, cookies collect data to enhance your experience and personalize the content and advertising you see.
Visit our Privacy Policy to learn more. By continuing to use the site, you agree to this use of cookies and data.
  • In Deutschland
  • Länderverzeichnis
  • Für 7 Tage
  • Wassertemperatur
  • Satellitenkarten
  • Wetterkarte
  • Widgets
  • user-avatar
    Anmelden

    Stündliche Wetter Newport

    Heute, 15 Dezember, Samstag

    Zeit Temperatur Niederschläge Wind Luftdruck Luftfeuchtigkeit
    00:00 0°C° 0 mm 8 m/S 762 mmHg 75%
    01:00 0°C° 0 mm 8 m/S 761 mmHg 74%
    02:00 0°C° 0 mm 9 m/S 760 mmHg 72%
    03:00 0°C° 0 mm 9 m/S 760 mmHg 71%
    04:00 0°C° 0.3 mm 9 m/S 759 mmHg 74%
    05:00 0°C° 0.3 mm 10 m/S 759 mmHg 76%
    06:00 0°C° 0 mm 10 m/S 758 mmHg 76%
    07:00 -1°C° 0.9 mm 11 m/S 757 mmHg 80%
    08:00 -1°C° 0.9 mm 11 m/S 757 mmHg 84%
    09:00 -1°C° 0.9 mm 11 m/S 756 mmHg 87%
    10:00 0°C° 1.3 mm 12 m/S 755 mmHg 89%
    11:00 +2°C° 1.3 mm 12 m/S 754 mmHg 90%
    12:00 +1°C° 1.3 mm 13 m/S 753 mmHg 91%
    13:00 +3°C° 2.4 mm 13 m/S 752 mmHg 92%
    14:00 +3°C° 2.4 mm 12 m/S 751 mmHg 93%
    15:00 +4°C° 2.4 mm 12 m/S 749 mmHg 93%
    16:00 +5°C° 3 mm 12 m/S 749 mmHg 93%
    17:00 +7°C° 3 mm 11 m/S 748 mmHg 94%
    18:00 +9°C° 3 mm 10 m/S 747 mmHg 94%
    19:00 +8°C° 0.1 mm 11 m/S 747 mmHg 90%
    20:00 +7°C° 0.1 mm 11 m/S 748 mmHg 85%
    21:00 +7°C° 0.1 mm 11 m/S 748 mmHg 81%
    22:00 +6°C° 0 mm 10 m/S 748 mmHg 82%
    23:00 +5°C° 0 mm 9 m/S 749 mmHg 83%

    Morgen, 16 Dezember, Sonntag

    Zeit Temperatur Niederschläge Wind Luftdruck Luftfeuchtigkeit
    00:00 +3°C° 0 mm 9 m/S 750 mmHg 84%
    01:00 +4°C° 0 mm 8 m/S 750 mmHg 85%
    02:00 +4°C° 0 mm 7 m/S 750 mmHg 86%
    03:00 +3°C° 0 mm 7 m/S 751 mmHg 87%
    04:00 +3°C° 0.3 mm 7 m/S 751 mmHg 88%
    05:00 +4°C° 0.3 mm 7 m/S 751 mmHg 89%
    06:00 +4°C° 0.3 mm 7 m/S 751 mmHg 90%
    07:00 +4°C° 0.1 mm 6 m/S 751 mmHg 89%
    08:00 +3°C° 0.1 mm 6 m/S 752 mmHg 89%
    09:00 +3°C° 0.1 mm 6 m/S 752 mmHg 88%
    10:00 +5°C° 0.1 mm 6 m/S 752 mmHg 85%
    11:00 +7°C° 0.1 mm 6 m/S 752 mmHg 82%
    12:00 +8°C° 0.1 mm 7 m/S 752 mmHg 79%
    13:00 +8°C° 0.2 mm 7 m/S 752 mmHg 81%
    14:00 +6°C° 0.2 mm 7 m/S 752 mmHg 83%
    15:00 +7°C° 0.2 mm 6 m/S 752 mmHg 85%
    16:00 +7°C° 0.5 mm 6 m/S 752 mmHg 86%
    17:00 +5°C° 0.5 mm 6 m/S 752 mmHg 86%
    18:00 +5°C° 0.5 mm 6 m/S 753 mmHg 87%
    19:00 +4°C° 0.1 mm 6 m/S 753 mmHg 88%
    20:00 +3°C° 0.1 mm 5 m/S 754 mmHg 90%
    21:00 +3°C° 0.1 mm 5 m/S 754 mmHg 91%
    22:00 +3°C° 0 mm 5 m/S 755 mmHg 91%
    23:00 +2°C° 0 mm 5 m/S 755 mmHg 91%

    übermorgen, 17 Dezember, Montag

    Zeit Temperatur Niederschläge Wind Luftdruck Luftfeuchtigkeit
    00:00 +2°C° 0 mm 5 m/S 756 mmHg 91%
    01:00 +2°C° 0 mm 5 m/S 756 mmHg 91%
    02:00 +2°C° 0 mm 5 m/S 756 mmHg 91%
    03:00 +2°C° 0 mm 5 m/S 757 mmHg 91%
    04:00 +2°C° 0 mm 5 m/S 757 mmHg 91%
    05:00 +2°C° 0 mm 5 m/S 758 mmHg 91%
    06:00 +2°C° 0 mm 5 m/S 758 mmHg 91%
    07:00 +2°C° 0 mm 5 m/S 759 mmHg 90%
    08:00 +4°C° 0 mm 4 m/S 759 mmHg 89%
    09:00 +4°C° 0 mm 4 m/S 760 mmHg 89%
    10:00 +6°C° 0 mm 5 m/S 760 mmHg 86%
    11:00 +7°C° 0 mm 6 m/S 761 mmHg 83%
    12:00 +9°C° 0 mm 7 m/S 761 mmHg 80%
    13:00 +9°C° 0 mm 7 m/S 761 mmHg 82%
    14:00 +8°C° 0 mm 7 m/S 761 mmHg 84%
    15:00 +7°C° 0 mm 8 m/S 760 mmHg 85%
    16:00 +7°C° 0 mm 8 m/S 760 mmHg 86%
    17:00 +7°C° 0 mm 8 m/S 760 mmHg 88%
    18:00 +7°C° 0 mm 8 m/S 760 mmHg 89%
    19:00 +7°C° 0 mm 9 m/S 760 mmHg 88%
    20:00 +8°C° 0 mm 9 m/S 760 mmHg 88%
    21:00 +8°C° 0 mm 9 m/S 760 mmHg 88%
    22:00 +8°C° 0 mm 10 m/S 760 mmHg 88%
    23:00 +8°C° 0 mm 10 m/S 759 mmHg 88%

    18 Dezember, Dienstag

    Zeit Temperatur Niederschläge Wind Luftdruck Luftfeuchtigkeit
    00:00 +9°C° 0 mm 10 m/S 759 mmHg 87%
    01:00 +9°C° 0 mm 11 m/S 759 mmHg 87%
    02:00 +8°C° 0 mm 11 m/S 758 mmHg 86%
    03:00 +8°C° 0 mm 11 m/S 758 mmHg 85%
    04:00 +8°C° 0 mm 11 m/S 757 mmHg 84%
    05:00 +8°C° 0 mm 11 m/S 757 mmHg 83%
    06:00 +7°C° 0 mm 11 m/S 756 mmHg 83%
    07:00 +7°C° 0 mm 12 m/S 756 mmHg 80%
    08:00 +7°C° 0 mm 12 m/S 755 mmHg 77%
    09:00 +7°C° 0 mm 13 m/S 754 mmHg 74%
    10:00 +7°C° 0 mm 13 m/S 754 mmHg 72%
    11:00 +8°C° 0 mm 13 m/S 753 mmHg 70%
    12:00 +8°C° 0 mm 13 m/S 752 mmHg 67%
    13:00 +8°C° 0.2 mm 13 m/S 751 mmHg 68%
    14:00 +8°C° 0.2 mm 13 m/S 750 mmHg 69%
    15:00 +8°C° 0.2 mm 12 m/S 749 mmHg 70%
    16:00 +7°C° 0.8 mm 13 m/S 749 mmHg 73%
    17:00 +7°C° 0.8 mm 13 m/S 748 mmHg 76%
    18:00 +7°C° 0.8 mm 13 m/S 747 mmHg 79%
    19:00 +7°C° 1.8 mm 13 m/S 747 mmHg 82%
    20:00 +7°C° 1.8 mm 13 m/S 747 mmHg 85%
    21:00 +8°C° 1.8 mm 13 m/S 747 mmHg 88%
    22:00 +7°C° 0.4 mm 11 m/S 748 mmHg 87%
    23:00 +6°C° 0.4 mm 10 m/S 748 mmHg 86%

    19 Dezember, Mittwoch

    Zeit Temperatur Niederschläge Wind Luftdruck Luftfeuchtigkeit
    00:00 +5°C° 0.4 mm 8 m/S 749 mmHg 85%
    01:00 +5°C° 0 mm 7 m/S 750 mmHg 85%
    02:00 +5°C° 0 mm 7 m/S 751 mmHg 86%
    03:00 +5°C° 0 mm 7 m/S 751 mmHg 87%
    04:00 +5°C° 0.1 mm 6 m/S 752 mmHg 87%
    05:00 +4°C° 0.1 mm 6 m/S 752 mmHg 88%
    06:00 +5°C° 0.1 mm 5 m/S 753 mmHg 89%
    07:00 +5°C° 0.1 mm 5 m/S 753 mmHg 88%
    08:00 +5°C° 0.1 mm 4 m/S 754 mmHg 88%
    09:00 +5°C° 0.1 mm 4 m/S 754 mmHg 87%
    10:00 +6°C° 0.2 mm 4 m/S 755 mmHg 83%
    11:00 +7°C° 0.2 mm 4 m/S 755 mmHg 80%
    12:00 +8°C° 0.2 mm 4 m/S 755 mmHg 76%
    13:00 +8°C° 0.2 mm 4 m/S 755 mmHg 78%
    14:00 +8°C° 0.2 mm 4 m/S 755 mmHg 79%
    15:00 +7°C° 0.2 mm 4 m/S 755 mmHg 81%
    16:00 +6°C° 0 mm 4 m/S 755 mmHg 83%
    17:00 +6°C° 0 mm 4 m/S 755 mmHg 84%
    18:00 +5°C° 0 mm 5 m/S 756 mmHg 86%
    19:00 +5°C° 0.2 mm 5 m/S 756 mmHg 85%
    20:00 +5°C° 0.2 mm 5 m/S 756 mmHg 85%
    21:00 +5°C° 0.2 mm 5 m/S 757 mmHg 85%
    22:00 +3°C° 0.2 mm 5 m/S 757 mmHg 85%
    23:00 +3°C° 0.2 mm 5 m/S 757 mmHg 86%

    20 Dezember, Donnerstag

    Zeit Temperatur Niederschläge Wind Luftdruck Luftfeuchtigkeit
    00:00 +3°C° 0.2 mm 5 m/S 757 mmHg 86%
    01:00 +3°C° 0 mm 5 m/S 757 mmHg 87%
    02:00 +3°C° 0 mm 5 m/S 757 mmHg 88%
    03:00 +3°C° 0 mm 5 m/S 757 mmHg 89%
    04:00 +3°C° 0.3 mm 5 m/S 758 mmHg 90%
    05:00 +3°C° 0.3 mm 5 m/S 758 mmHg 91%
    06:00 +5°C° 0.3 mm 5 m/S 758 mmHg 92%
    07:00 +5°C° 0.3 mm 5 m/S 759 mmHg 92%
    08:00 +5°C° 0.3 mm 5 m/S 759 mmHg 93%
    09:00 +5°C° 0.3 mm 4 m/S 760 mmHg 93%
    10:00 +6°C° 0.1 mm 4 m/S 760 mmHg 89%
    11:00 +7°C° 0.1 mm 4 m/S 760 mmHg 86%
    12:00 +8°C° 0.1 mm 4 m/S 760 mmHg 82%
    13:00 +7°C° 0 mm 4 m/S 760 mmHg 84%
    14:00 +7°C° 0 mm 4 m/S 761 mmHg 86%
    15:00 +8°C° 0 mm 3 m/S 761 mmHg 88%
    16:00 +7°C° 0.1 mm 3 m/S 761 mmHg 89%
    17:00 +5°C° 0.1 mm 3 m/S 762 mmHg 90%
    18:00 +5°C° 0.1 mm 3 m/S 762 mmHg 92%
    19:00 +4°C° 0 mm 3 m/S 763 mmHg 91%
    20:00 +4°C° 0 mm 3 m/S 763 mmHg 91%
    21:00 +4°C° 0 mm 3 m/S 763 mmHg 91%
    22:00 +4°C° 0 mm 3 m/S 763 mmHg 92%
    23:00 +4°C° 0 mm 3 m/S 763 mmHg 92%
    Mehr zeigen